When you browse on this site, cookies collect data to enhance your experience and personalize the content and advertising you see.
Visit our Privacy Policy to learn more. By continuing to use the site, you agree to this use of cookies and data.
  • In Belgium
  • List of Countries
  • For 7 days
  • Water Temperature
  • Satellite Maps
  • Weather Map
  • Weather Widgets
  • user-avatar
    Login

    Hourly Weather Derry

    Today, 14 December, Friday

    Time Temperature Precipitation Wind Pressure Humidity
    00:00 +2°C° 0 mm 8 mps 754 mmHg 83%
    01:00 +2°C° 0.2 mm 8 mps 754 mmHg 84%
    02:00 +2°C° 0.2 mm 8 mps 754 mmHg 84%
    03:00 +2°C° 0.2 mm 8 mps 754 mmHg 84%
    04:00 +2°C° 0 mm 8 mps 754 mmHg 84%
    05:00 +1°C° 0 mm 8 mps 754 mmHg 85%
    06:00 +2°C° 0 mm 7 mps 754 mmHg 86%
    07:00 +1°C° 0 mm 8 mps 754 mmHg 85%
    08:00 +2°C° 0 mm 8 mps 754 mmHg 85%
    09:00 +2°C° 0 mm 9 mps 754 mmHg 84%
    10:00 +2°C° 0 mm 9 mps 753 mmHg 83%
    11:00 +3°C° 0 mm 9 mps 753 mmHg 82%
    12:00 +3°C° 0 mm 9 mps 753 mmHg 82%
    13:00 +3°C° 0.1 mm 9 mps 753 mmHg 82%
    14:00 +3°C° 0.1 mm 10 mps 752 mmHg 83%
    15:00 +3°C° 0.1 mm 10 mps 752 mmHg 84%
    16:00 +3°C° 0.4 mm 10 mps 751 mmHg 85%
    17:00 +3°C° 0.4 mm 10 mps 751 mmHg 86%
    18:00 +3°C° 0.4 mm 10 mps 751 mmHg 86%
    19:00 +3°C° 0.2 mm 10 mps 751 mmHg 86%
    20:00 +5°C° 0.2 mm 10 mps 750 mmHg 86%
    21:00 +5°C° 0.2 mm 10 mps 750 mmHg 86%
    22:00 +5°C° 0.2 mm 10 mps 750 mmHg 87%
    23:00 +5°C° 0.2 mm 10 mps 749 mmHg 87%

    Tomorrow, 15 December, Saturday

    Time Temperature Precipitation Wind Pressure Humidity
    00:00 +5°C° 0.2 mm 10 mps 749 mmHg 87%
    01:00 +5°C° 1 mm 10 mps 748 mmHg 87%
    02:00 +5°C° 1 mm 10 mps 747 mmHg 88%
    03:00 +5°C° 1 mm 10 mps 746 mmHg 88%
    04:00 +5°C° 1.2 mm 10 mps 746 mmHg 88%
    05:00 +3°C° 1.2 mm 10 mps 745 mmHg 89%
    06:00 +3°C° 1.2 mm 10 mps 745 mmHg 89%
    07:00 +3°C° 0.8 mm 10 mps 744 mmHg 88%
    08:00 +3°C° 0.8 mm 11 mps 743 mmHg 88%
    09:00 +3°C° 0.8 mm 11 mps 742 mmHg 87%
    10:00 +4°C° 0.5 mm 11 mps 740 mmHg 87%
    11:00 +4°C° 0.5 mm 11 mps 739 mmHg 87%
    12:00 +5°C° 0.5 mm 12 mps 737 mmHg 88%
    13:00 +5°C° 1.7 mm 12 mps 736 mmHg 88%
    14:00 +5°C° 1.7 mm 12 mps 734 mmHg 88%
    15:00 +7°C° 1.7 mm 12 mps 733 mmHg 88%
    16:00 +7°C° 2.5 mm 11 mps 732 mmHg 89%
    17:00 +7°C° 2.5 mm 10 mps 732 mmHg 91%
    18:00 +7°C° 2.5 mm 9 mps 731 mmHg 92%
    19:00 +6°C° 1.3 mm 10 mps 731 mmHg 88%
    20:00 +5°C° 1.3 mm 10 mps 732 mmHg 84%
    21:00 +5°C° 1.3 mm 10 mps 732 mmHg 80%
    22:00 +5°C° 0.1 mm 10 mps 733 mmHg 78%
    23:00 +3°C° 0.1 mm 10 mps 734 mmHg 76%

    Day after tomorrow, 16 December, Sunday

    Time Temperature Precipitation Wind Pressure Humidity
    00:00 +3°C° 0.1 mm 9 mps 734 mmHg 74%
    01:00 +4°C° 0.1 mm 8 mps 735 mmHg 75%
    02:00 +4°C° 0.1 mm 8 mps 736 mmHg 76%
    03:00 +4°C° 0.1 mm 7 mps 737 mmHg 78%
    04:00 +3°C° 0.1 mm 7 mps 737 mmHg 79%
    05:00 +3°C° 0.1 mm 6 mps 738 mmHg 80%
    06:00 +3°C° 0.1 mm 6 mps 738 mmHg 82%
    07:00 +2°C° 0.1 mm 6 mps 739 mmHg 83%
    08:00 +2°C° 0.1 mm 6 mps 739 mmHg 84%
    09:00 +2°C° 0.1 mm 6 mps 739 mmHg 85%
    10:00 +2°C° 0 mm 6 mps 739 mmHg 83%
    11:00 +3°C° 0 mm 6 mps 740 mmHg 81%
    12:00 +4°C° 0 mm 7 mps 740 mmHg 79%
    13:00 +4°C° 0.1 mm 6 mps 740 mmHg 80%
    14:00 +4°C° 0.1 mm 6 mps 740 mmHg 81%
    15:00 +4°C° 0.1 mm 6 mps 740 mmHg 81%
    16:00 +3°C° 0.1 mm 6 mps 741 mmHg 83%
    17:00 +3°C° 0.1 mm 6 mps 741 mmHg 85%
    18:00 +2°C° 0.1 mm 5 mps 742 mmHg 86%
    19:00 +2°C° 0.1 mm 5 mps 742 mmHg 87%
    20:00 +2°C° 0.1 mm 5 mps 743 mmHg 87%
    21:00 +2°C° 0.1 mm 5 mps 743 mmHg 88%
    22:00 +2°C° 0.1 mm 5 mps 744 mmHg 89%
    23:00 +2°C° 0.1 mm 5 mps 744 mmHg 90%

    17 December, Monday

    Time Temperature Precipitation Wind Pressure Humidity
    00:00 +1°C° 0.1 mm 5 mps 745 mmHg 91%
    01:00 +1°C° 0 mm 5 mps 745 mmHg 91%
    02:00 +1°C° 0 mm 4 mps 746 mmHg 91%
    03:00 +1°C° 0 mm 4 mps 746 mmHg 92%
    04:00 +1°C° 0 mm 4 mps 746 mmHg 92%
    05:00 +1°C° 0 mm 4 mps 746 mmHg 92%
    06:00 0°C° 0 mm 4 mps 746 mmHg 92%
    07:00 +1°C° 0 mm 5 mps 746 mmHg 91%
    08:00 +1°C° 0 mm 5 mps 746 mmHg 90%
    09:00 +1°C° 0 mm 5 mps 746 mmHg 90%
    10:00 +2°C° 0.1 mm 6 mps 746 mmHg 88%
    11:00 +3°C° 0.1 mm 7 mps 745 mmHg 86%
    12:00 +3°C° 0.1 mm 9 mps 744 mmHg 84%
    13:00 +5°C° 0.2 mm 9 mps 743 mmHg 84%
    14:00 +6°C° 0.2 mm 9 mps 742 mmHg 84%
    15:00 +7°C° 0.2 mm 10 mps 740 mmHg 84%
    16:00 +7°C° 0.6 mm 10 mps 739 mmHg 85%
    17:00 +8°C° 0.6 mm 11 mps 739 mmHg 85%
    18:00 +8°C° 0.6 mm 11 mps 738 mmHg 85%
    19:00 +7°C° 1.9 mm 10 mps 737 mmHg 87%
    20:00 +7°C° 1.9 mm 8 mps 737 mmHg 88%
    21:00 +7°C° 1.9 mm 6 mps 737 mmHg 89%
    22:00 +7°C° 0.4 mm 6 mps 737 mmHg 90%
    23:00 +6°C° 0.4 mm 5 mps 737 mmHg 90%

    18 December, Tuesday

    Time Temperature Precipitation Wind Pressure Humidity
    00:00 +6°C° 0.4 mm 5 mps 736 mmHg 90%
    01:00 +6°C° 0.4 mm 5 mps 736 mmHg 90%
    02:00 +6°C° 0.4 mm 5 mps 735 mmHg 91%
    03:00 +6°C° 0.4 mm 5 mps 735 mmHg 91%
    04:00 +5°C° 1.4 mm 4 mps 734 mmHg 92%
    05:00 +5°C° 1.4 mm 4 mps 733 mmHg 93%
    06:00 +4°C° 1.4 mm 3 mps 732 mmHg 94%
    07:00 +4°C° 0.2 mm 3 mps 732 mmHg 94%
    08:00 +4°C° 0.2 mm 3 mps 732 mmHg 93%
    09:00 +4°C° 0.2 mm 3 mps 732 mmHg 92%
    10:00 +4°C° 0 mm 4 mps 732 mmHg 91%
    11:00 +5°C° 0 mm 5 mps 732 mmHg 90%
    12:00 +5°C° 0 mm 5 mps 733 mmHg 89%
    13:00 +5°C° 0.1 mm 5 mps 733 mmHg 88%
    14:00 +5°C° 0.1 mm 5 mps 733 mmHg 87%
    15:00 +5°C° 0.1 mm 6 mps 733 mmHg 85%
    16:00 +4°C° 0.1 mm 6 mps 733 mmHg 86%
    17:00 +3°C° 0.1 mm 6 mps 733 mmHg 87%
    18:00 +3°C° 0.1 mm 6 mps 734 mmHg 88%
    19:00 +3°C° 0 mm 6 mps 734 mmHg 87%
    20:00 +2°C° 0 mm 6 mps 734 mmHg 86%
    21:00 +2°C° 0 mm 7 mps 734 mmHg 84%
    22:00 +2°C° 0 mm 7 mps 734 mmHg 85%
    23:00 +2°C° 0 mm 7 mps 734 mmHg 86%

    19 December, Wednesday

    Time Temperature Precipitation Wind Pressure Humidity
    00:00 +3°C° 0 mm 7 mps 734 mmHg 87%
    01:00 +3°C° 0 mm 7 mps 734 mmHg 86%
    02:00 +3°C° 0 mm 7 mps 734 mmHg 85%
    03:00 +2°C° 0 mm 8 mps 734 mmHg 84%
    04:00 +2°C° 0 mm 8 mps 734 mmHg 84%
    05:00 +1°C° 0 mm 8 mps 734 mmHg 84%
    06:00 +1°C° 0 mm 8 mps 734 mmHg 84%
    07:00 +1°C° 0.1 mm 8 mps 733 mmHg 84%
    08:00 +1°C° 0.1 mm 8 mps 733 mmHg 84%
    09:00 +2°C° 0.1 mm 9 mps 733 mmHg 84%
    10:00 +2°C° 0.3 mm 8 mps 732 mmHg 85%
    11:00 +4°C° 0.3 mm 8 mps 732 mmHg 85%
    12:00 +5°C° 0.3 mm 8 mps 731 mmHg 86%
    13:00 +5°C° 0.2 mm 7 mps 731 mmHg 84%
    14:00 +5°C° 0.2 mm 7 mps 730 mmHg 83%
    15:00 +5°C° 0.2 mm 7 mps 730 mmHg 81%
    16:00 +4°C° 0.1 mm 7 mps 730 mmHg 83%
    17:00 +4°C° 0.1 mm 6 mps 730 mmHg 84%
    18:00 +3°C° 0.1 mm 6 mps 730 mmHg 86%
    19:00 +4°C° 0.3 mm 6 mps 731 mmHg 86%
    20:00 +4°C° 0.3 mm 6 mps 731 mmHg 86%
    21:00 +4°C° 0.3 mm 6 mps 731 mmHg 86%
    22:00 +4°C° 0.4 mm 6 mps 731 mmHg 86%
    23:00 +4°C° 0.4 mm 6 mps 732 mmHg 87%
    Show more